Zurück zum Katalog

ONEWEB-0599

AktivKommunikationPO
NORAD 55155·PAYLOAD·🇬🇧 United Kingdom

Gestartet Jan 10, 2023 von Cape Canaveral Space Force Station

Loading…

Nächste Überflüge (nächste 24 Stunden)

TLE

AktuellSource: CelesTrak SupGP

Epoche: Sep 14, 2026, 12:01 UTC

1 55155C 23004R   26257.50084907 -.00000036  00000+0 -92869-4 0  2570
2 55155  87.9206 348.1273 0001895  94.9932  14.8095 13.17649645    16

Verfolge ONEWEB-0599 in Echtzeit mit AllMySat

Download on the App Store